Location: Clanezzo
(45.7500°N, 9.6000°E)
Time: 06:25:53
(UTC+00:00)

Gbstr 26 Del rocket - Pass Details

Date: 03 October 2021
Orbit: 492 x 1263 km, 51.8° (Epoch: 20 October)

Event Time Altitude Azimuth Distance (km) Brightness Sun altitude
Rises 18:49:36 0° 254° (WSW) 3,775 8.1 -20.2°
Reaches altitude 10° 18:52:07 10° 257° (WSW) 2,920 7.4 -20.6°
Maximum altitude 18:59:22 70° 340° (NNW) 1,271 4.6 -21.8°
Enters shadow 19:04:47 23° 60° (ENE) 2,388 5.6 -22.7°
